SCP
0 -0 -0 -0 -0 -0 -0 -0 -0 0 0 0 0 0 0 -0 -0 -0 -0 0 0 0 0 -0 -0 -0 -0 -0 -0 -0 -0 -0 -0
0 0 0 0 -0 -0 -0 -0 -0 -0 0 0 0 0 0 0 -0 -0 0 0 0 0 0 0 -0 -0 -0 -0 -0 -0 -0 -0 0
0 1 1 0 0 0 -0 -0 -0 -0 -0 0 0 0 0 0 0 0 0 0 0 0 0 0 -0 -0 -0 -0 -0 -0 -0 -0 0
1 0 0 0 1 0 0 0 -0 -0 -0 0 0 0 0 0 0 0 0 0 0 0 0 0 0 -0 -0 -0 -0 -0 -0 -0 -0
0 0 0 1 0 0 0 0 0 -0 -0 -0 0 0 0 0 0 0 -0 0 0 0 0 0 0 -0 -0 -0 -0 -0 -0 -0 -0
0 0 0 0 0 0 0 0 -0 0 -0 -0 0 1 0 0 0 0 0 0 0 0 0 -0 1 0 0 0 0 0 -0 -0 -0
0 0 0 0 0 0 -0 -0 0 0 0 -0 -0 0 1 0 0 0 0 0 0 0 0 1 1 1 0 0 0 0 0 0 0
0 0 0 0 0 0 0 -0 -0 0 1 0 -0 -0 1 1 1 0 0 0 0 0 1 0 0 0 0 0 0 0 0 0 0
0 0 0 0 0 0 0 -0 0 1 1 1 0 -0 0 1 1 1 1 1 0 0 0 1 0 0 0 0 0 0 0 0 0
0 0 0 0 0 0 0 0 0 0 0 0 0 0 0 1 1 1 1 1 1 1 0 0 0 0 1 0 0 0 0 -0 0
0 0 0 0 0 0 0 0 0 0 0 0 0 0 0 0 1 1 1 1 1 1 1 1 0 0 0 0 0 0 0 0 0
0 0 -0 0 0 0 0 0 0 0 0 0 0 -0 0 0 1 1 1 1 1 1 1 1 1 1 1 0 0 0 0 0 0
0 0 -0 -0 -0 0 0 0 0 0 0 0 0 0 0 0 0 1 1 2 1 2 2 1 2 1 1 1 1 1 0 0 0
0 0 -0 -0 -0 -0 0 0 0 0 0 0 0 0 0 1 0 0 1 1 2 2 2 2 2 1 1 1 1 1 0 0 0
0 0 -0 -0 -0 0 -0 -0 0 0 0 0 0 0 0 1 1 1 2 1 2 2 3 2 2 2 2 2 1 1 1 0 0
0 -0 -0 -0 -0 -0 -0 -0 -0 0 0 0 0 0 0 1 3 2 1 2 2 3 3 3 2 2 2 1 2 2 1 0 0
-0 -0 -0 -0 -0 -0 -0 -0 -0 -0 0 0 0 0 0 1 3 4 2 3 3 3 3 3 2 2 2 2 2 2 2 1 0
0 -0 -0 -0 -0 0 -0 0 -0 -0 0 0 0 0 0 1 3 4 4 3 3 2 2 3 3 2 2 2 2 2 2 3 2
0 0 0 -0 0 0 -0 0 -0 0 0 0 0 0 0 0 0 1 2 3 2 0 1 2 2 2 2 2 1 1 1 1 1
0 0 0 0 0 0 0 0 0 0 0 0 0 0 0 0 0 0 0 2 2 2 1 0 0 0 1 1 1 0 0 0 0
Wind_Speed_500mb
78 89 107 109 107 101 96 94 95 94 92 86 81 82 81 72 68 67 57 45 43 41 28 26 25 21 15 10 17 19 12 19 23
63 74 83 97 103 102 104 100 99 100 95 89 82 80 83 83 71 73 69 55 50 40 34 31 29 33 29 21 17 22 16 17 20
53 49 65 54 44 85 110 109 105 101 99 93 85 79 84 91 83 72 75 66 59 60 47 45 32 42 40 28 23 28 26 18 20
81 41 63 88 52 45 48 95 108 107 106 99 91 82 78 87 93 82 78 78 64 62 56 51 39 34 41 32 26 29 29 27 24
78 97 100 92 82 76 51 51 93 112 111 107 99 88 82 78 88 92 86 83 77 70 62 57 35 38 42 38 31 30 34 32 32
56 78 72 57 35 71 95 65 75 101 111 110 105 97 89 83 78 89 95 90 84 80 71 68 63 53 51 50 43 34 34 33 31
26 52 37 28 48 46 128 95 65 104 106 108 107 99 94 90 85 81 85 92 91 87 77 75 78 75 70 65 59 50 42 39 36
70 58 44 43 8 75 56 69 81 102 102 102 100 96 93 88 82 79 79 80 88 87 90 83 81 78 73 68 63 59 53 48 45
58 62 59 57 50 32 25 47 51 60 76 99 95 93 88 79 74 69 74 77 80 81 86 94 86 81 82 79 73 65 61 55 53
58 61 61 62 61 53 47 23 32 49 34 35 90 98 91 82 75 73 67 70 76 80 81 84 94 90 84 81 77 71 64 59 56
66 63 64 62 52 60 53 40 24 31 40 30 40 91 94 91 82 76 73 68 71 78 80 80 82 85 84 80 76 71 67 63 59
46 61 45 53 48 46 42 34 23 28 54 61 36 75 90 89 87 83 79 78 75 74 78 80 84 83 84 85 81 73 68 65 65
36 53 51 53 49 40 43 41 26 4 17 37 31 16 72 85 79 80 84 81 78 76 76 77 79 82 82 82 82 77 71 68 67
31 45 52 55 49 44 39 46 37 26 23 27 22 21 24 63 78 78 82 83 80 79 78 75 78 82 83 82 78 76 71 69 70
33 41 44 49 51 45 50 53 48 45 39 37 33 32 33 43 76 77 80 85 86 83 80 78 77 78 82 80 77 73 71 70 72
41 39 36 42 45 38 42 47 48 47 42 42 38 40 45 43 61 79 80 81 86 86 82 79 77 79 78 79 76 74 72 70 70
45 42 41 40 42 33 39 40 41 42 41 40 38 35 36 44 48 72 79 77 78 84 85 82 80 80 82 82 81 79 76 73 68
48 46 40 41 36 32 36 37 37 40 38 34 35 28 7 24 34 54 74 77 78 78 84 83 81 85 82 81 81 81 75 74 71
46 47 45 36 30 33 35 36 37 38 39 34 34 30 18 17 32 41 56 66 73 77 78 80 81 74 76 79 75 70 65 60 56
44 41 33 29 26 25 34 37 36 34 38 36 31 37 31 15 19 38 44 50 64 76 77 76 73 72 70 66 69 53 60 60 55
Wind_Direction_500mb
197 198 188 188 190 190 193 198 204 207 209 214 216 210 206 204 197 193 192 200 208 207 214 212 208 214 213 213 225 216 214 199 207
200 194 190 188 192 191 192 198 205 211 212 214 217 213 206 206 206 195 195 195 199 206 211 220 224 227 225 226 245 232 232 225 206
179 185 177 169 181 197 196 200 206 210 217 217 218 217 211 207 210 204 199 198 202 208 209 216 239 225 223 229 251 228 228 216 211
158 164 207 182 197 210 199 201 204 209 216 217 218 219 217 212 211 211 205 204 203 203 205 216 222 207 214 225 238 234 226 227 217
174 178 190 186 190 202 233 216 206 208 214 218 220 220 219 219 216 216 212 210 210 208 208 208 209 214 216 224 232 231 231 230 225
153 173 180 188 178 190 227 247 231 206 210 218 221 220 219 221 221 220 221 216 214 216 215 209 213 218 222 231 237 239 239 234 228
166 152 161 184 227 208 216 236 241 206 205 215 219 219 221 222 224 225 223 224 221 222 221 220 219 224 230 236 244 247 245 243 237
47 48 55 38 24 197 214 248 242 212 201 203 216 219 221 225 227 228 229 227 226 222 226 228 229 231 232 235 239 245 246 245 245
31 27 28 25 42 90 65 243 215 191 202 200 205 217 221 224 225 227 227 229 229 226 222 229 234 234 235 238 242 243 244 246 247
9 18 18 13 10 21 38 66 203 194 185 212 207 213 218 222 225 226 228 229 228 229 227 224 230 237 242 243 242 243 243 245 248
358 9 5 1 8 10 17 37 43 212 256 256 218 217 218 220 223 227 228 227 229 228 231 233 232 234 239 243 245 244 243 244 247
357 356 357 351 360 4 352 2 38 172 204 296 272 228 219 224 224 225 228 229 230 229 229 233 237 239 241 244 246 247 247 245 245
347 340 346 345 351 354 352 351 355 235 230 234 233 219 227 224 225 229 228 233 233 233 233 235 237 239 241 244 247 250 248 245 245
331 333 341 333 342 353 349 333 337 337 289 278 252 214 205 231 229 229 235 232 233 235 235 237 237 238 242 245 248 249 247 246 246
333 330 332 331 328 343 343 341 338 338 330 305 286 263 220 221 233 230 232 232 230 233 235 236 238 239 240 243 247 249 248 248 249
322 321 310 332 323 332 336 343 342 334 331 317 293 277 238 222 231 230 229 230 229 228 230 235 237 235 236 239 244 248 250 253 253
304 309 322 315 314 328 330 331 337 337 329 321 315 295 252 220 223 227 227 230 232 231 229 231 235 234 235 239 242 244 250 252 255
292 300 309 303 314 316 316 315 326 332 334 323 318 307 218 210 233 232 226 230 230 232 237 240 239 236 237 234 238 248 250 252 256
272 288 293 304 303 304 295 309 316 321 328 328 324 315 327 186 195 216 235 234 233 233 239 244 245 247 246 247 248 251 256 254 252
260 269 277 283 278 286 295 302 306 318 319 327 319 316 311 290 212 231 233 237 241 241 237 239 242 242 243 243 246 250 242 244 247
Wind_Speed_850mb
78 89 107 109 107 101 96 94 95 94 92 86 81 82 81 72 68 67 57 45 43 41 28 26 25 21 15 10 17 19 12 19 23
63 74 83 97 103 102 104 100 99 100 95 89 82 80 83 83 71 73 69 55 50 40 34 31 29 33 29 21 17 22 16 17 20
53 49 65 54 44 85 110 109 105 101 99 93 85 79 84 91 83 72 75 66 59 60 47 45 32 42 40 28 23 28 26 18 20
81 41 63 88 52 45 48 95 108 107 106 99 91 82 78 87 93 82 78 78 64 62 56 51 39 34 41 32 26 29 29 27 24
78 97 100 92 82 76 51 51 93 112 111 107 99 88 82 78 88 92 86 83 77 70 62 57 35 38 42 38 31 30 34 32 32
56 78 72 57 35 71 95 65 75 101 111 110 105 97 89 83 78 89 95 90 84 80 71 68 63 53 51 50 43 34 34 33 31
26 52 37 28 48 46 128 95 65 104 106 108 107 99 94 90 85 81 85 92 91 87 77 75 78 75 70 65 59 50 42 39 36
70 58 44 43 8 75 56 69 81 102 102 102 100 96 93 88 82 79 79 80 88 87 90 83 81 78 73 68 63 59 53 48 45
58 62 59 57 50 32 25 47 51 60 76 99 95 93 88 79 74 69 74 77 80 81 86 94 86 81 82 79 73 65 61 55 53
58 61 61 62 61 53 47 23 32 49 34 35 90 98 91 82 75 73 67 70 76 80 81 84 94 90 84 81 77 71 64 59 56
66 63 64 62 52 60 53 40 24 31 40 30 40 91 94 91 82 76 73 68 71 78 80 80 82 85 84 80 76 71 67 63 59
46 61 45 53 48 46 42 34 23 28 54 61 36 75 90 89 87 83 79 78 75 74 78 80 84 83 84 85 81 73 68 65 65
36 53 51 53 49 40 43 41 26 4 17 37 31 16 72 85 79 80 84 81 78 76 76 77 79 82 82 82 82 77 71 68 67
31 45 52 55 49 44 39 46 37 26 23 27 22 21 24 63 78 78 82 83 80 79 78 75 78 82 83 82 78 76 71 69 70
33 41 44 49 51 45 50 53 48 45 39 37 33 32 33 43 76 77 80 85 86 83 80 78 77 78 82 80 77 73 71 70 72
41 39 36 42 45 38 42 47 48 47 42 42 38 40 45 43 61 79 80 81 86 86 82 79 77 79 78 79 76 74 72 70 70
45 42 41 40 42 33 39 40 41 42 41 40 38 35 36 44 48 72 79 77 78 84 85 82 80 80 82 82 81 79 76 73 68
48 46 40 41 36 32 36 37 37 40 38 34 35 28 7 24 34 54 74 77 78 78 84 83 81 85 82 81 81 81 75 74 71
46 47 45 36 30 33 35 36 37 38 39 34 34 30 18 17 32 41 56 66 73 77 78 80 81 74 76 79 75 70 65 60 56
44 41 33 29 26 25 34 37 36 34 38 36 31 37 31 15 19 38 44 50 64 76 77 76 73 72 70 66 69 53 60 60 55
Wind_Direction_850mb
197 198 188 188 190 190 193 198 204 207 209 214 216 210 206 204 197 193 192 200 208 207 214 212 208 214 213 213 225 216 214 199 207
200 194 190 188 192 191 192 198 205 211 212 214 217 213 206 206 206 195 195 195 199 206 211 220 224 227 225 226 245 232 232 225 206
179 185 177 169 181 197 196 200 206 210 217 217 218 217 211 207 210 204 199 198 202 208 209 216 239 225 223 229 251 228 228 216 211
158 164 207 182 197 210 199 201 204 209 216 217 218 219 217 212 211 211 205 204 203 203 205 216 222 207 214 225 238 234 226 227 217
174 178 190 186 190 202 233 216 206 208 214 218 220 220 219 219 216 216 212 210 210 208 208 208 209 214 216 224 232 231 231 230 225
153 173 180 188 178 190 227 247 231 206 210 218 221 220 219 221 221 220 221 216 214 216 215 209 213 218 222 231 237 239 239 234 228
166 152 161 184 227 208 216 236 241 206 205 215 219 219 221 222 224 225 223 224 221 222 221 220 219 224 230 236 244 247 245 243 237
47 48 55 38 24 197 214 248 242 212 201 203 216 219 221 225 227 228 229 227 226 222 226 228 229 231 232 235 239 245 246 245 245
31 27 28 25 42 90 65 243 215 191 202 200 205 217 221 224 225 227 227 229 229 226 222 229 234 234 235 238 242 243 244 246 247
9 18 18 13 10 21 38 66 203 194 185 212 207 213 218 222 225 226 228 229 228 229 227 224 230 237 242 243 242 243 243 245 248
358 9 5 1 8 10 17 37 43 212 256 256 218 217 218 220 223 227 228 227 229 228 231 233 232 234 239 243 245 244 243 244 247
357 356 357 351 360 4 352 2 38 172 204 296 272 228 219 224 224 225 228 229 230 229 229 233 237 239 241 244 246 247 247 245 245
347 340 346 345 351 354 352 351 355 235 230 234 233 219 227 224 225 229 228 233 233 233 233 235 237 239 241 244 247 250 248 245 245
331 333 341 333 342 353 349 333 337 337 289 278 252 214 205 231 229 229 235 232 233 235 235 237 237 238 242 245 248 249 247 246 246
333 330 332 331 328 343 343 341 338 338 330 305 286 263 220 221 233 230 232 232 230 233 235 236 238 239 240 243 247 249 248 248 249
322 321 310 332 323 332 336 343 342 334 331 317 293 277 238 222 231 230 229 230 229 228 230 235 237 235 236 239 244 248 250 253 253
304 309 322 315 314 328 330 331 337 337 329 321 315 295 252 220 223 227 227 230 232 231 229 231 235 234 235 239 242 244 250 252 255
292 300 309 303 314 316 316 315 326 332 334 323 318 307 218 210 233 232 226 230 230 232 237 240 239 236 237 234 238 248 250 252 256
272 288 293 304 303 304 295 309 316 321 328 328 324 315 327 186 195 216 235 234 233 233 239 244 245 247 246 247 248 251 256 254 252
260 269 277 283 278 286 295 302 306 318 319 327 319 316 311 290 212 231 233 237 241 241 237 239 242 242 243 243 246 250 242 244 247